{"data":{"norad_id":67985,"epoch":"2026-09-19T22:36:08.118432Z","epoch_age_seconds":107733,"freshness":"FRESH","line1":"1 67985U 26038AA  26262.94176063  .00009575  00000+0  29848-3 0  9997","line2":"2 67985  97.2835 272.1417 0001725 114.5085 245.6338 15.33451844 33065","mean_motion":15.33451844,"eccentricity":0.0001725,"inclination_deg":97.2835,"raan_deg":272.1417,"arg_perigee_deg":114.5085,"mean_anomaly_deg":245.6338,"bstar":0.00029848,"rev_number":3306,"period_min":93.905785540925,"perigee_km":464.34228030753,"apogee_km":466.70334294254,"semimajor_km":6843.659811625,"source":"CELESTRAK","updated_at":"2026-09-20T09:00:43.734173Z"}}